Weather History for Ord, NE

Change the Weather History Date:

Monday, February 18, 2013

  Actual Average Record
Temperature  
Mean Temperature 32 °F 28 °F  
Max Temperature 42 °F 41 °F 62 °F (2014)
Min Temperature 22 °F 16 °F -9 °F (2006)
Degree Days  
Heating Degree Days 33    
Month to date heating degree days 568  
Cooling Degree Days 0    
Month to date cooling degree days 0  
Year to date cooling degree days 0  
Moisture  
Dew Point 20 °F    
Average Humidity 59    
Maximum Humidity 74    
Minimum Humidity 44    
Precipitation  
Precipitation T in 0.01 in 1.35 in (1972)
Month to date precipitation 0.84 0.31  
Year to date precipitation 0.98 0.68  
Sea Level Pressure  
Sea Level Pressure 29.89 in    
Wind  
Wind Speed 22 mph (NNW)    
Max Wind Speed 40 mph    
Max Gust Speed 52 mph    
Visibility 10 miles    
Events      
T = Trace of Precipitation, MM = Missing Value Source: NWS Daily Summary

Daily Weather History Graph

Daily Weather History Graph

Search for Another Location

Airport:

Trip Planner

Search our weather history database for the weather conditions in past years. The results will help you decide how hot, cold, wet, or windy it might be!

Date:

Astronomy

Feb. 18, 2013 Rise Set
Actual Time 7:26 AM CST 6:13 PM CST
Civil Twilight 6:58 AM CST 6:41 PM CST
Nautical Twilight 6:25 AM CST 7:14 PM CST
Astronomical Twilight 5:53 AM CST 7:46 PM CST
Moon 11:58 AM CST (2/18) 2:09 AM CST (2/18)
Length of Visible Light 11h 43m
Length of Day
10h 46m
First Quarter, 58% of the Moon is Illuminated
Feb 18
First Quarter
Feb 25
Full
Mar 4
Last Quarter
Mar 11
New
Mar 19
First Quarter

Hourly Weather History & Observations

Time (CST) Temp. Windchill Dew Point Humidity Pressure Visibility Wind Dir Wind Speed Gust Speed Precip Events Conditions
12:53 AM 39.9 °F 30.5 °F 30.0 °F 68% 29.64 in 10.0 mi NNW 19.6 mph - N/A   Clear
1:53 AM 39.0 °F 29.3 °F 30.0 °F 70% 29.63 in 10.0 mi NNW 19.6 mph 26.5 mph N/A   Clear
2:53 AM 39.0 °F 27.8 °F 28.0 °F 65% 29.64 in 10.0 mi NNW 26.5 mph 32.2 mph N/A   Partly Cloudy
3:53 AM 37.9 °F 26.6 °F 28.0 °F 68% 29.63 in 10.0 mi NNW 25.3 mph 32.2 mph N/A   Clear
4:53 AM 36.0 °F 23.5 °F 27.0 °F 70% 29.66 in 10.0 mi NNW 27.6 mph 40.3 mph N/A   Overcast
5:53 AM 36.0 °F 22.8 °F 26.1 °F 67% 29.70 in 10.0 mi NNW 31.1 mph 40.3 mph N/A   Overcast
6:53 AM 35.1 °F 23.0 °F 24.1 °F 64% 29.73 in 10.0 mi North 24.2 mph 33.4 mph N/A   Partly Cloudy
7:53 AM 35.6 °F 23.4 °F 24.8 °F 65% 29.73 in 10.0 mi NNW 25.3 mph 33.4 mph N/A   Overcast
8:53 AM 34.0 °F 20.8 °F 25.0 °F 70% 29.81 in 10.0 mi NNW 27.6 mph 38.0 mph N/A   Overcast
9:53 AM 32.0 °F 16.7 °F 19.0 °F 59% 29.86 in 10.0 mi NNW 34.5 mph 51.8 mph N/A   Overcast
10:53 AM 30.0 °F 14.5 °F 18.0 °F 61% 29.90 in 10.0 mi NW 32.2 mph 41.4 mph N/A   Overcast
11:53 AM 30.9 °F 16.4 °F 17.1 °F 57% 29.94 in 10.0 mi NNW 28.8 mph 40.3 mph N/A   Overcast
12:53 PM 33.1 °F 18.7 °F 17.1 °F 52% 29.94 in 10.0 mi NNW 32.2 mph 41.4 mph N/A   Mostly Cloudy
1:53 PM 35.1 °F 22.5 °F 17.1 °F 48% 29.95 in 10.0 mi NW 26.5 mph 36.8 mph N/A   Mostly Cloudy
2:53 PM 35.1 °F 22.7 °F 16.0 °F 46% 29.96 in 10.0 mi NNW 25.3 mph 34.5 mph N/A   Partly Cloudy
3:53 PM 34.0 °F 21.8 °F 16.0 °F 48% 29.99 in 10.0 mi NNW 23.0 mph 34.5 mph N/A   Scattered Clouds
4:53 PM 32.0 °F 20.5 °F 16.0 °F 52% 30.01 in 10.0 mi NNW 18.4 mph - N/A   Mostly Cloudy
5:53 PM 30.9 °F 20.2 °F 16.0 °F 54% 30.03 in 10.0 mi NNW 15.0 mph - N/A   Clear
6:53 PM 27.0 °F 18.7 °F 15.1 °F 61% 30.06 in 10.0 mi NNW 8.1 mph - N/A   Partly Cloudy
7:53 PM 27.0 °F 20.5 °F 16.0 °F 63% 30.07 in 10.0 mi WNW 5.8 mph - N/A   Overcast
8:53 PM 24.1 °F 16.0 °F 16.0 °F 71% 30.10 in 10.0 mi NW 6.9 mph - N/A   Clear
9:53 PM 25.0 °F 14.8 °F 17.1 °F 72% 30.13 in 10.0 mi NW 10.4 mph - N/A   Mostly Cloudy
10:53 PM 24.1 °F 10.1 °F 16.0 °F 71% 30.15 in 10.0 mi NNW 18.4 mph 24.2 mph 0.00 in   Mostly Cloudy
11:53 PM 21.9 °F 7.3 °F 12.9 °F 68% 30.18 in 10.0 mi NNW 18.4 mph 25.3 mph N/A   Clear